Location: Clanezzo
(45.7500°N, 9.6000°E)
Time: 18:06:19
(UTC+00:00)

STARS - Pass Details

Date: 02 July 2022
Orbit: 620 x 637 km, 98.2° (Epoch: 18 August)

Event Time Altitude Azimuth Distance (km) Brightness Sun altitude
Rises 22:55:26 0° 4° (N) 2,934 ? -20.9°
Reaches altitude 10° 22:57:49 10° 355° (N) 2,019 ? -21.0°
Maximum altitude 23:01:42 32° 293° (WNW) 1,091 ? -21.1°
Enters shadow 23:03:50 21° 246° (WSW) 1,432 ? -21.1°
